Tracking 18856 objects as of 11-Dec-2017
HD Live streaming from Space Station
objects crossing your sky now

COSMOS 2251 DEB

Track COSMOS 2251 DEB now!
10-day predictions


NORAD ID: 34131
Int'l Code: 1993-036LC
Perigee: 694.2 km
Apogee: 706.5 km
Inclination: 74.1 °
Period: 98.6 minutes
Semi major axis: 7071 km
RCS: 0.018 m2 (small)
Launch date: June 16, 1993
Source: Commonwealth of Independent States (former USSR) (CIS)
Launch site: PLESETSK MISSILE AND SPACE COMPLEX (PKMTR)

Note: This is SATELLITE DEBRIS
aabbcc
Your satellite tracking list
Your tracking list is empty




NASA's NSSDC Master Catalog

Two Line Element Set (TLE):
1 34131U 93036LC  17344.92785612 +.00001820 +00000-0 +38506-3 0  9998
2 34131 074.1203 162.2136 0008724 128.6091 021.8827 14.59982712465382
Source of the keplerian elements: AFSPC